COSMOS 1989 (ETALON 1)

Satellite information

Favourite Embed

Satellite Type and Status

PAYLOADIN ORBIT

Key statistics

Satellite COSMOS 1989 (ETALON 1) at a glance.

Uptime

13439

Days in orbit

Revolutions

≈ 2.1

Per day

Orbit

MEO

Medium Earth Orbit

Inclination

64.8

Latest

Satellite identification and parameters

Extended collection of information and parameters for COSMOS 1989 (ETALON 1).

Object identification

Identified? True

Debris? False

Object name: COSMOS 1989 (ETALON 1)

International designator: 1989-001C

Object number (NORAD): 19751

Object ID (CCSDS): 19751

Country: COMMONWEALTH OF INDEPENDENT STATES (CIS)

Current information (Y/N): Y

RCS size: LARGE

Orbital parameters

Period: 675.561 minutes

Inclination: 64.8104 deg

SMA: 25503.708 km

Apoapsis: 19185.378 km

Periapsis: 19065.768 km

RAAN: 80.1916 deg

Eccentricy: 0.00234495

Argument of periapsis: 216.9019 deg

Mean anomaly: 158.0226 deg

Mean motion: 2.13156101 rev/day

Mean motion (dot): 0.00000031 rev/day2

B* drag term: 0.0 1/REarth

Two-line elements (TLE)

Creation date: Oct. 27, 2025, 2:46 a.m.

Reference frame: TEME

Reference center: EARTH

Epoch: Oct. 26, 2025, 2:52 p.m. UTC

TLE line 0: 0 COSMOS 1989 (ETALON 1)

TLE line 1: 1 19751U 89001C 25299.61981914 .00000031 00000-0 00000-0 0 9991

TLE line 2: 2 19751 64.8104 80.1916 0023450 216.9019 158.0226 2.13156101286397

Live tracking on map

Real-time ground track for satellite COSMOS 1989 (ETALON 1).

In-orbit conjunctions

A list of the most updated potential collisions computed for object COSMOS 1989 (ETALON 1).

Target Orbit TCA Probability of collision Miss distance Type
SL-12 R/B(2) MEO 2025-10-16 09:19:15 TBA 4811.0 (m) ROCKET BODY
SL-12 R/B(2) MEO 2025-05-22 03:21:34 TBA 3560.0 (m) ROCKET BODY

Associated space launch

GLONASS navigation satellites

COSMOS 1989 (ETALON 1) was lifted into orbit during the mission ‘Proton | Uragan 32 & 33’, on board a Proton space rocket.

The launch took place on Jan. 10, 1989, 2:05 a.m. from 200/39 (200L).

For more information about the launch, click the button.

Launch to space Proton | Uragan 32 & 33
Proton | Uragan 32 & 33

Agency: N/A

Status: Launch Successful

Launch date: Jan. 10, 1989, 2:05 a.m. UTC

Rocket: Proton

Launch pad: 200/39 (200L)

Location: Baikonur Cosmodrome, Republic of Kazakhstan

...

Latest news about this satellite

There are no fresh news available about this satellite. Check back as we update our databases every day.


Newsletter sign-up

Weekly statistics, charts and insights to help you stay on top of the space industry.